[[{"header":{"parameterUnit":"m.s-1","parameterCategory":1,"la1":30.2991,"la2":30.254,"lo1":-89.0895,"lo2":-89.0444,"dy":0.0017,"dx":0.0017,"nx":28,"ny":28,"refTime":"2024-06-14T21:00:00:Z","depth":0,"parameterNumber":2,"parameterNumberName":"U-component_of_WINDS"},"data":[0,0,0,0,0,0,0,0,0,0,0,0,0,0,0,0,0,0,0,0,0,0,0,0,0,0,0,0,0,0,0,0,0,0,0,0,0,0,0,0,0,0,0,0,0,0,0,0,0,0,0,0,0,0,0,0,0,0,0.6896,0.6897,0,0.6953,0.6953,0.6954,0.6967,0.6967,0.6967,0.6966,0.7023,0.7025,0.7027,0,0,0,0,0,0,0,0,0,0,0,0,0,0.6797,0.6799,0.6896,0.6897,0.6898,0.6953,0.6953,0.6954,0.6967,0.6967,0.6966,0.6966,0.7022,0.7025,0.7027,0,0,0,0,0,0,0,0,0,0,0,0,0,0.6846,0.68,0.6896,0.6911,0.6913,0.6952,0.6953,0.6954,0.6968,0.6967,0.6966,0.6966,0.7022,0.7024,0.7027,0.7056,0,0,0.7036,0.7037,0,0,0,0,0,0,0,0,0.6843,0.6849,0.6908,0.691,0.6912,0.6952,0.6939,0.6988,0.6968,0.6947,0.6966,0.6966,0.7,0.7004,0.7016,0.7058,0.7061,0.7036,0.7038,0.7039,0.704,0,0,0,0,0,0,0,0.684,0.6847,0.6918,0.6909,0.6911,0.6914,0.692,0.6949,0.6976,0.6948,0.695,0.6956,0.7001,0.7014,0.7018,0.7062,0.7036,0.7038,0.704,0.7041,0.7128,0.7129,0,0,0,0,0,0,0.6834,0.6844,0.6917,0.692,0.6875,0.6916,0.6923,0.694,0.6975,0.698,0.6957,0.6957,0.7009,0.7014,0.702,0.7054,0.7039,0.7041,0.7043,0.7127,0.7128,0.7129,0,0,0,0,0,0,0.6832,0.684,0.6914,0.6882,0.6892,0.6918,0.6937,0.6941,0.6954,0.6982,0.6986,0.6965,0.7009,0.7016,0.7046,0.7057,0.7043,0.7045,0.7127,0.7128,0.7129,0.7125,0,0,0,0,0,0,0.6829,0.6839,0.6851,0.6883,0.6894,0.6941,0.6938,0.6943,0.6959,0.696,0.699,0.6995,0.7009,0.7042,0.7049,0.706,0.7047,0.7126,0.7127,0.7128,0.7124,0.7125,0.7127,0,0,0,0,0,0.6825,0.6848,0.6852,0.6861,0.6909,0.6941,0.6948,0.6964,0.696,0.6971,0.6989,0.6994,0.7054,0.7045,0.7053,0.7065,0.7125,0.7127,0.7128,0.7123,0.7125,0.7127,0,0,0,0,0,0,0.6817,0.6853,0.6857,0.6891,0.6913,0.6944,0.6959,0.6965,0.6989,0.6988,0.7006,0.7013,0.7042,0.7057,0.7046,0.7094,0.709,0.7093,0.7083,0.7085,0.7086,0.7082,0.705,0,0,0,0,0,0.682,0.6843,0.6873,0.69,0.691,0.6933,0.6947,0.6957,0.6981,0.699,0.701,0.7032,0.7056,0.7071,0.7095,0.7126,0.7132,0.7138,0.7139,0.714,0.7143,0.7159,0.7161,0.7134,0.7134,0.7133,0,0,0.6824,0.6847,0.6861,0.6898,0.6917,0.694,0.6941,0.6966,0.6983,0.6994,0.7024,0.7039,0.7065,0.7095,0.711,0.7108,0.7152,0.7142,0.7143,0.7145,0.716,0.7163,0.7165,0.7134,0.7134,0.7134,0,0,0.6845,0.6865,0.6889,0.6907,0.6934,0.6949,0.6954,0.6984,0.6994,0.7024,0.7033,0.7053,0.7094,0.7111,0.7126,0.7151,0.7156,0.7158,0.7165,0.718,0.7182,0.7184,0.7192,0.7195,0.716,0.716,0.716,0,0.6848,0.6884,0.69,0.6924,0.694,0.6951,0.6975,0.6991,0.7025,0.7035,0.7033,0.7084,0.7102,0.7136,0.7142,0.7154,0.716,0.7155,0.7181,0.7183,0.7185,0.7193,0.7196,0.716,0.716,0.716,0.716,0,0.6885,0.6909,0.6925,0.6957,0.6975,0.6999,0.7018,0.7033,0.7041,0.7055,0.7085,0.7107,0.7134,0.7143,0.7152,0.7178,0.7176,0.7177,0.7173,0.7187,0.7195,0.7198,0.716,0.716,0.716,0.716,0,0,0.6903,0.6943,0.6948,0.6962,0.6993,0.7012,0.7035,0.7062,0.7075,0.7097,0.7116,0.715,0.715,0.7167,0.7177,0.719,0.7207,0.7189,0.719,0.7191,0.7236,0.7235,0.7238,0.721,0.7211,0.7212,0.7233,0,0.6927,0.697,0.6985,0.702,0.7042,0.7052,0.7072,0.7092,0.7106,0.7126,0.714,0.7163,0.7163,0.7172,0.7186,0.7202,0.7216,0.7201,0.7228,0.7229,0.7221,0.7242,0.7242,0.7261,0.7237,0.7237,0.7238,0,0.6961,0.6984,0.7021,0.7047,0.7057,0.7075,0.71,0.7119,0.7142,0.715,0.7167,0.7176,0.72,0.7194,0.7226,0.7215,0.7227,0.7236,0.7237,0.7241,0.7234,0.7245,0.7268,0.7271,0.7243,0.7242,0.7242,0,0.697,0.7009,0.7037,0.7048,0.708,0.7092,0.7105,0.7127,0.7142,0.7163,0.7173,0.7196,0.7209,0.7227,0.7241,0.7236,0.7272,0.7268,0.7279,0.7278,0.7286,0.7285,0.731,0.7294,0.7294,0.7294,0.7294,0,0.6995,0.7017,0.7041,0.7058,0.7082,0.7098,0.7122,0.7136,0.7155,0.7173,0.7183,0.72,0.7218,0.7237,0.7248,0.7273,0.7279,0.7285,0.7288,0.7284,0.7283,0.7292,0.7291,0.7295,0.7294,0.7294,0.7294,0,0.7009,0.7026,0.7056,0.7083,0.709,0.7107,0.7129,0.7145,0.7158,0.7182,0.7188,0.7208,0.7231,0.7247,0.7277,0.7284,0.731,0.7313,0.7302,0.7304,0.7313,0.7312,0.7345,0.735,0.733,0.7331,0.7331,0,0.7024,0.7041,0.7069,0.7083,0.7096,0.7118,0.7132,0.7148,0.7162,0.7188,0.7201,0.7224,0.7244,0.728,0.7297,0.7319,0.7322,0.7332,0.7325,0.732,0.7321,0.732,0.7321,0.7333,0.7333,0.7333,0.7333,0,0.7048,0.7055,0.7076,0.71,0.7117,0.7136,0.7155,0.7166,0.7184,0.72,0.7223,0.7238,0.7268,0.7291,0.7314,0.7327,0.7333,0.7335,0.7338,0.7335,0.7328,0.7331,0.7304,0.7334,0.7334,0.7334,0.7334,0.7334,0.7063,0.7078,0.71,0.7122,0.7138,0.7156,0.7172,0.7186,0.7206,0.7232,0.7239,0.7263,0.7283,0.7315,0.7328,0.7346,0.7346,0.7351,0.7353,0.7354,0.7353,0.7325,0.7351,0.7351,0.7351,0.7351,0.7351,0,0.7087,0.7101,0.7122,0.7148,0.7165,0.7169,0.719,0.7204,0.7225,0.7244,0.7262,0.7288,0.731,0.7328,0.735,0.7361,0.7364,0.7366,0.7366,0.7368,0.7353,0.7347,0.7364,0.7364,0.7364,0.7364,0.7364,0.7363,0.7101,0.7127,0.7136,0.7169,0.7183,0.7207,0.7218,0.7234,0.7248,0.7277,0.7295,0.7307,0.7325,0.7348,0.7367,0.7372,0.7379,0.7381,0.7386,0.7371,0.737,0.7368,0.7363,0.7382,0.7382,0.74,0.74,0.74]},{"header":{"parameterUnit":"m.s-1","parameterCategory":1,"la1":30.2991,"la2":30.254,"lo1":-89.0895,"lo2":-89.0444,"dy":0.0017,"dx":0.0017,"nx":28,"ny":28,"refTime":"2024-06-14T21:00:00:Z","depth":0,"parameterNumber":3,"parameterNumberName":"V-component_of_WINDS"},"data":[0,0,0,0,0,0,0,0,0,0,0,0,0,0,0,0,0,0,0,0,0,0,0,0,0,0,0,0,0,0,0,0,0,0,0,0,0,0,0,0,0,0,0,0,0,0,0,0,0,0,0,0,0,0,0,0,0,0,0.2195,0.2195,0,0.2187,0.2187,0.2187,0.2168,0.2168,0.2167,0.2167,0.2157,0.2158,0.2158,0,0,0,0,0,0,0,0,0,0,0,0,0,0.2193,0.2193,0.2195,0.2195,0.2195,0.2187,0.2187,0.2187,0.2168,0.2168,0.2167,0.2167,0.2157,0.2158,0.2158,0,0,0,0,0,0,0,0,0,0,0,0,0,0.219,0.2193,0.2195,0.2185,0.2184,0.2187,0.2187,0.2187,0.2168,0.2168,0.2167,0.2167,0.2157,0.2158,0.2158,0.217,0,0,0.2158,0.2158,0,0,0,0,0,0,0,0,0.2191,0.2191,0.2187,0.2186,0.2185,0.2178,0.2183,0.2181,0.2168,0.2174,0.2167,0.2166,0.2165,0.2164,0.2164,0.217,0.2169,0.2158,0.2158,0.2158,0.2158,0,0,0,0,0,0,0,0.2191,0.2191,0.2192,0.2187,0.2185,0.218,0.2179,0.2182,0.2173,0.2174,0.2172,0.2172,0.2164,0.2164,0.2164,0.2169,0.2158,0.2158,0.2158,0.2158,0.2183,0.2183,0,0,0,0,0,0,0.2193,0.2191,0.2192,0.2192,0.2186,0.218,0.2179,0.2181,0.2173,0.2171,0.2172,0.2171,0.2164,0.2163,0.2163,0.2176,0.2158,0.2158,0.2159,0.2182,0.2183,0.2183,0,0,0,0,0,0,0.2193,0.2193,0.2193,0.2191,0.2191,0.2181,0.2183,0.2181,0.2181,0.2171,0.217,0.2174,0.2163,0.2163,0.2168,0.2175,0.2159,0.2159,0.2181,0.2182,0.2183,0.2203,0,0,0,0,0,0,0.2193,0.2193,0.2199,0.2191,0.2191,0.2199,0.2183,0.2181,0.2181,0.2179,0.2173,0.2171,0.2163,0.2168,0.2168,0.2175,0.2159,0.2181,0.2182,0.2183,0.2201,0.2204,0.2207,0,0,0,0,0,0.2193,0.2205,0.2199,0.2199,0.2197,0.2199,0.2199,0.219,0.2182,0.2186,0.218,0.2171,0.2175,0.2169,0.2169,0.2176,0.218,0.2181,0.2183,0.22,0.2204,0.2207,0,0,0,0,0,0,0.2213,0.2204,0.2197,0.2207,0.2204,0.2196,0.2202,0.2194,0.2193,0.2191,0.2179,0.2178,0.2184,0.2181,0.2174,0.2187,0.2176,0.2177,0.2189,0.2192,0.2195,0.2195,0.2159,0,0,0,0,0,0.2219,0.2221,0.2213,0.2222,0.2221,0.2212,0.2212,0.2205,0.2202,0.22,0.2195,0.2191,0.2191,0.2191,0.2191,0.2201,0.2198,0.2205,0.2208,0.221,0.2211,0.2215,0.2218,0.2187,0.2187,0.2187,0,0,0.223,0.2225,0.2228,0.2226,0.2223,0.2225,0.2211,0.2215,0.2216,0.2201,0.2205,0.2201,0.2196,0.2203,0.2206,0.22,0.2219,0.2212,0.2214,0.2214,0.2216,0.2219,0.2222,0.2188,0.2188,0.2188,0,0,0.2253,0.225,0.2257,0.2254,0.2249,0.2242,0.2244,0.2237,0.2233,0.2237,0.2226,0.2227,0.2227,0.2224,0.2222,0.2241,0.2232,0.2241,0.2255,0.2258,0.226,0.2263,0.2268,0.2271,0.2243,0.2243,0.2243,0,0.2268,0.2272,0.2261,0.2265,0.2264,0.225,0.2257,0.2254,0.2249,0.2248,0.2242,0.2242,0.2237,0.2243,0.2247,0.2247,0.2247,0.2242,0.2261,0.2263,0.2265,0.227,0.2273,0.2244,0.2244,0.2244,0.2243,0,0.229,0.2292,0.2298,0.2294,0.2294,0.2299,0.2288,0.2289,0.2282,0.2275,0.2279,0.2273,0.2271,0.2271,0.2264,0.2275,0.2272,0.2263,0.2252,0.2269,0.2274,0.2276,0.2245,0.2245,0.2245,0.2244,0,0,0.2326,0.2315,0.2317,0.2314,0.2307,0.2309,0.2312,0.231,0.231,0.2307,0.2309,0.2309,0.2301,0.2299,0.2291,0.2294,0.2308,0.2285,0.2285,0.2289,0.2318,0.2324,0.2327,0.2302,0.2302,0.2303,0.2318,0,0.2346,0.2353,0.2343,0.2351,0.2353,0.2338,0.2341,0.2337,0.2331,0.233,0.2323,0.2323,0.2313,0.2311,0.2313,0.2306,0.2314,0.2305,0.2303,0.2303,0.2305,0.233,0.2337,0.2352,0.232,0.2321,0.2321,0,0.2372,0.2369,0.2378,0.2369,0.2369,0.2372,0.2368,0.2368,0.2362,0.2357,0.2354,0.2344,0.2346,0.2335,0.2337,0.2331,0.2329,0.2325,0.2326,0.2325,0.2313,0.2329,0.2357,0.2359,0.2324,0.2324,0.2324,0,0.2396,0.2395,0.2399,0.2398,0.2387,0.2389,0.2385,0.2379,0.2377,0.2373,0.2372,0.2369,0.2367,0.2364,0.2353,0.2346,0.2355,0.2344,0.2351,0.2351,0.2354,0.2354,0.2381,0.2353,0.2353,0.2353,0.2353,0,0.242,0.2426,0.241,0.2413,0.2418,0.2406,0.2411,0.2405,0.2399,0.24,0.2387,0.2388,0.2374,0.2372,0.2364,0.2366,0.2365,0.2361,0.2358,0.2362,0.2362,0.2361,0.2359,0.2354,0.2354,0.2353,0.2353,0,0.2449,0.2439,0.2443,0.2432,0.2429,0.2434,0.2424,0.2426,0.2418,0.2419,0.2418,0.2406,0.2404,0.2393,0.2388,0.2382,0.2387,0.2382,0.2389,0.2387,0.2395,0.2394,0.2422,0.2424,0.2395,0.2396,0.2396,0,0.2465,0.2468,0.2458,0.2457,0.2454,0.2453,0.2451,0.2439,0.2438,0.243,0.2432,0.2429,0.2425,0.2422,0.2412,0.2408,0.2403,0.2413,0.2403,0.2405,0.2402,0.2402,0.2402,0.2415,0.2416,0.2416,0.2416,0,0.2493,0.2488,0.2486,0.2482,0.248,0.2477,0.2472,0.2472,0.2458,0.2457,0.2455,0.2452,0.2446,0.2443,0.2437,0.2431,0.2421,0.242,0.2421,0.2424,0.2428,0.2425,0.2395,0.2419,0.2419,0.2419,0.2419,0.2418,0.2516,0.2518,0.251,0.2508,0.2503,0.2499,0.25,0.2492,0.249,0.2484,0.2477,0.2475,0.2467,0.2457,0.2453,0.245,0.2445,0.2447,0.2447,0.2448,0.2449,0.2428,0.2449,0.2449,0.2449,0.2449,0.2449,0,0.2543,0.2537,0.2536,0.2529,0.2527,0.2518,0.2512,0.2511,0.2509,0.2503,0.25,0.2496,0.2492,0.2481,0.2476,0.2476,0.2471,0.2475,0.2475,0.2473,0.2455,0.2454,0.2479,0.2479,0.2479,0.2479,0.2479,0.2479,0.2557,0.256,0.2553,0.2553,0.2547,0.2545,0.2542,0.2538,0.2532,0.2529,0.2525,0.2519,0.251,0.2504,0.2499,0.2496,0.2494,0.25,0.2495,0.2478,0.2475,0.2472,0.2471,0.2499,0.2499,0.2513,0.2514,0.2514]}]]